开运一号(KAIYUN-1)

导读

KAIYUN-1(OBJECT-B,开运一号 / 嘉州号)是中国商业航天首颗天基太空态势感知卫星。2025 年 9 月 5 日,由谷神星一号火箭在酒泉发射,进入 535 公里太阳同步轨道。作为广视星座首发星,它可覆盖低中高轨,监测太空目标与碎片,构建自主轨道数据集,为在轨安全、碰撞预警提供数据支撑。

Basic Information
目录编号:
65489
目录名称:
KAIYUN-1 (OBJECT-B)
国际标识:
2025-197B
轨道中心:
EARTH
卫星名称:
开运一号
卫星全名:
开运一号(KAIYUN-1)
卫星状态:
在轨 (已飞行364 天)
发射日期:
2025-09-05 UTC
国别 :
中国 (CN)
星等 :
--
Orbit Information
数据来源 国际轨道数据
星历时间: 2026-09-03T19:52:51+0800
1天前
查看轨道信息
半长轴: 6884.033km
偏心率: 0.0015206
轨道倾角: 97.412°
近地点辐角 92.585°
升交点赤经 71.367°
平近点角 267.712°
近地点: 495.428km
远地点: 516.364km
周期: 94.738分钟
每日圈数: 15.199818
Detailed Information
运营商:
北京开运联合信息技术集团股份有限公司
运营商所在国:
中国
制造商(研发单位):
上海巡天千河空间技术有限公司
制造商所在国:
中国
使用方式:
暂无
Satellite Introduction
该卫星是我国首颗商业天基平台太空态势感知卫星,属于广视星座首发星,以晨昏线低轨轨道运行,通过太空探测载荷执行数据采集任务,结合地面观测站网构建天地一体化观测体系。
2D Orbit Map
3D Orbit Map
Orbit Altitude Analysis Chart
Orbit Inclination Analysis Chart
Orbit Comprehensive Analysis Chart
View Comprehensive Chart
Conjunction Data List
Event ID Objects TCA Miss Dist (km) Collision Risk Probability Collision Risk Index (CRI) Action
CDM_260902-034306-309206-548921
2026-09-02T
03:43:33+0000
0.933 km
远距离
3.457604E-5 中风险 0.66
CDM_260904-143902-408206-548923
2026-09-04T
14:39:32+0000
2.653 km
极远距离
1.613325E-6 低风险 0.39